sat.trackr.live / text

‹ back to catalog

STARLINK-32521

NORAD 62117 · 2024-222D

PAYLOAD ACTIVE UNKNOWN

§ Identity

Operator
Country
US
Launch date
2024-11-27
Launch site
AFETR
Launch vehicle
Mass (kg)
RCS (m²)

Purposes: comms

External: N2YO · Heavens-Above · Gunter

§ Orbital elements

Epoch: 2026-05-25T03:38:19.829760Z

Period
94.27 min
Inclination
43.0035°
Eccentricity
0.0000874
Mean motion
15.27594439 rev/d
Perigee alt
482.4 km
Apogee alt
483.6 km
Semi-major
6,861.1 km
B*
5.7304e-4
RAAN
60.7211°
Arg perigee
260.4649°
Mean anomaly
99.6104°
Rev number
8,448

§ Raw data

STARLINK-325211 62117U 24222D   26145.15161840  .00015547  00000+0  57304-3 0  99962 62117  43.0035  60.7211 0000874 260.4649  99.6104 15.27594439 84483

JSON: /api/v1/satellites/62117 · /tle

For live sub-satellite position, see the globe view (requires WebGL).

§ Visibility from observer

Set your observer location to see the next 7 days of passes ≥ 10°. The values pass through the URL so the page stays shareable.

No JS? Fill the form by hand. The geolocation button needs JavaScript.